Location: Unspecified
(0.0000°N, 0.0000°E)
Time: 10:52:40
(UTC+00:00)

ISS - Pass Details

Date: 17 March 2019
Orbit: 408 x 411 km, 51.6° (Epoch: 24 March)

Event Time Altitude Azimuth Distance (km) Brightness Sun altitude
Rises 19:23:26 0° 242° (WSW) 2,330 1.1 -18.8°
Reaches altitude 10° 19:26:02 10° 263° (W) 1,465 0.2 -19.4°
Maximum altitude 19:28:15 17° 306° (NW) 1,124 -0.9 -20.0°
Drops below altitude 10° 19:30:26 10° 348° (NNW) 1,459 -0.9 -20.5°
Enters shadow 19:31:22 - 358° (N) 1,737 -0.6 -20.7°
